Regional Weather Roundup
Issued by NWS Albany, NY

Home | Current Version | Previous Version | Graphics & Text | Print | Product List | Glossary Off
Versions: 1 2 3 4 5 6 7 8 9 10 11 12 13 14 15 16 17 18 19 20 21 22 23 24 25 26 27 28 29 30 31 32 33 34 35 36 37 38 39 40 41 42 43 44 45 46 47 48 49 50

000
ASUS41 KALY 100510
RWRALY

NEW YORK STATE HOURLY WEATHER ROUNDUP
NATIONAL WEATHER SERVICE ALBANY NY
1200 AM EST WED FEB 10 2016

NOTE: "FAIR" INDICATES FEW OR NO CLOUDS BELOW 12,000 FEET WITH NO
SIGNIFICANT WEATHER AND/OR NO OBSTRUCTIONS TO VISIBILITY.

NYZ032-033-038>043-046>054-057>066-NYZ062>081-100600-
EAST


CITY           SKY/WX    TMP DP  RH WIND       PRES   REMARKS
ALBANY         MOCLDY    27  23  85 S3        29.56F
GLENS FALLS    CLOUDY    26  22  84 CALM      29.56S
POUGHKEEPSIE   CLOUDY    31  25  78 CALM      29.58F
MONTGOMERY     LGT SNOW  29  26  89 S5        29.56F FOG     WCI  24
WHITE PLAINS   MOCLDY    28  22  78 CALM      29.58R
ISLIP          MOCLDY    27  22  81 CALM      29.59S
NEW YORK CITY  CLOUDY    33  26  75 CALM      29.60F
CENTRAL PARK   CLOUDY    34  26  72 CALM      29.62S
$$

NYZ005>009-017-018-044>046-055-056-100600-
CENTRAL


CITY           SKY/WX    TMP DP  RH WIND       PRES   REMARKS
FULTON         CLOUDY    31  27  85 CALM      29.53S
SYRACUSE       MOCLDY    24  24 100 CALM      29.53S FOG
ROME           FLURRIES  27  25  92 SE3       29.55S
ELMIRA         FOG       29  28  96 SW5       29.53R VSB 1/2 WCI  24
BINGHAMTON     LGT SNOW  29  27  92 W3        29.49S VSB 1
MONTICELLO     CLOUDY    27  27 100 CALM      29.52F
$$

NYZ026>034-041>043-100600-
NORTH


CITY           SKY/WX    TMP DP  RH WIND       PRES   REMARKS
WATERTOWN      CLOUDY    24  21  88 NE5       29.52F WCI  18
FORT DRUM      NOT AVBL
MASSENA        LGT SNOW  20  16  84 NE6       29.56F FOG     WCI  12
SARANAC LAKE   LGT SNOW  20  18  92 CALM      29.42F FOG
PLATTSBURGH    CLOUDY    22  18  85 CALM      29.54F
$$

NYZ001>004-010>016-019>021-100600-
WEST


CITY           SKY/WX    TMP DP  RH WIND       PRES   REMARKS
NIAGARA FALLS  LGT SNOW  31  26  82 SW20G25   29.48F WCI  19
BUFFALO        LGT SNOW  30  26  85 SW20G30   29.49F BLWGSNOWWCI  17
DUNKIRK        LGT SNOW  29  26  89 SW18G32   29.56S FOG     WCI  16
JAMESTOWN      CLOUDY    25  19  80 SW18G25   29.52S WCI  11
WELLSVILLE     CLOUDY    28  19  69 SW14G26   29.49F WCI  17
ROCHESTER      MOCLDY    32  22  66 W14       29.52S WCI  22
PENN YAN       CLOUDY    34  23  64 SW9       29.51F WCI  27
$$

             KEY
       WCI = WIND CHILL INDEX
       VSB = VISIBILITY
       HX  = HEAT INDEX
$$



USA.gov is the U.S. government's official web portal to all federal, state and local government web resources and services.